Location: Hamilton
(39.3990°N, 84.5610°W)
Time: 01:27:29
(UTC-04:00)

ISS - Pass Details

Date: 26 April 2024
Orbit: 410 x 414 km, 51.6° (Epoch: 19 May)

Event Time Altitude Azimuth Distance (km) Brightness Sun altitude
Exits shadow 05:36:36 11° 293° (WNW) 1,419 -1.4 -12.9°
Maximum altitude 05:38:50 19° 338° (NNW) 1,059 -1.6 -12.5°
Drops below altitude 10° 05:41:17 10° 25° (NNE) 1,478 -0.1 -12.1°
Sets 05:43:48 0° 45° (NE) 2,340 1.7 -11.7°
